TimePDT,TemperatureF,Dew PointF,Humidity,Sea Level PressureIn,VisibilityMPH,Wind Direction,Wind SpeedMPH,Gust SpeedMPH,PrecipitationIn,Events,Conditions,WindDirDegrees,DateUTC
12:55 AM,57.2,51.8,82,29.95,10.0,SSE,15.0,-,N/A,,Overcast,160,2012-10-30 07:55:00
1:15 AM,57.2,51.8,82,29.95,10.0,SSE,13.8,-,N/A,,Overcast,160,2012-10-30 08:15:00
1:55 AM,57.2,51.8,82,29.96,10.0,South,6.9,-,N/A,,Overcast,180,2012-10-30 08:55:00
2:15 AM,55.4,51.8,88,29.94,10.0,SE,8.1,-,N/A,,Mostly Cloudy,140,2012-10-30 09:15:00
2:35 AM,55.4,51.8,88,29.94,10.0,SSE,8.1,-,N/A,,Overcast,150,2012-10-30 09:35:00
2:55 AM,55.4,51.8,88,29.93,10.0,SE,9.2,-,N/A,,Overcast,130,2012-10-30 09:55:00
3:15 AM,55.4,51.8,88,29.92,10.0,SE,9.2,-,0.01,,Overcast,140,2012-10-30 10:15:00
3:35 AM,55.4,51.8,88,29.92,10.0,South,4.6,-,0.02,,Overcast,180,2012-10-30 10:35:00
3:55 AM,55.4,51.8,88,29.92,10.0,South,6.9,-,0.02,,Overcast,170,2012-10-30 10:55:00
4:15 AM,55.4,51.8,88,29.90,10.0,SSE,5.8,-,N/A,,Overcast,160,2012-10-30 11:15:00
4:35 AM,55.4,51.8,88,29.91,10.0,Calm,Calm,-,N/A,,Overcast,0,2012-10-30 11:35:00
4:55 AM,53.6,51.8,94,29.89,10.0,Calm,Calm,-,N/A,,Overcast,0,2012-10-30 11:55:00
5:15 AM,53.6,51.8,94,29.89,10.0,NNW,5.8,-,N/A,,Overcast,330,2012-10-30 12:15:00
5:35 AM,53.6,50.0,88,29.89,10.0,Calm,Calm,-,N/A,,Overcast,0,2012-10-30 12:35:00
5:55 AM,53.6,50.0,88,29.89,9.0,Calm,Calm,-,N/A,,Mostly Cloudy,0,2012-10-30 12:55:00
6:15 AM,53.6,51.8,94,29.89,8.0,Calm,Calm,-,0.01,,Overcast,0,2012-10-30 13:15:00
6:35 AM,53.6,51.8,94,29.89,5.0,Calm,Calm,-,0.01,,Overcast,0,2012-10-30 13:35:00
6:55 AM,53.6,50.0,88,29.88,5.0,Calm,Calm,-,0.01,,Overcast,0,2012-10-30 13:55:00
7:15 AM,53.6,51.8,94,29.89,4.0,Calm,Calm,-,N/A,,Overcast,0,2012-10-30 14:15:00
7:35 AM,53.6,51.8,94,29.88,5.0,Calm,Calm,-,0.01,,Overcast,0,2012-10-30 14:35:00
7:55 AM,53.6,51.8,94,29.88,4.0,Calm,Calm,-,0.01,,Overcast,0,2012-10-30 14:55:00
8:15 AM,53.6,51.8,94,29.88,7.0,Calm,Calm,-,N/A,,Overcast,0,2012-10-30 15:15:00
8:35 AM,53.6,51.8,94,29.88,10.0,Calm,Calm,-,N/A,,Overcast,0,2012-10-30 15:35:00
8:55 AM,53.6,50.0,88,29.88,10.0,NE,5.8,-,N/A,,Overcast,40,2012-10-30 15:55:00
9:15 AM,53.6,50.0,88,29.89,10.0,Calm,Calm,-,N/A,,Overcast,0,2012-10-30 16:15:00
9:35 AM,53.6,50.0,88,29.89,10.0,Calm,Calm,-,N/A,,Overcast,0,2012-10-30 16:35:00
9:55 AM,53.6,50.0,88,29.89,10.0,Calm,Calm,-,N/A,,Overcast,0,2012-10-30 16:55:00
10:15 AM,53.6,51.8,94,29.88,10.0,North,4.6,-,N/A,,Overcast,10,2012-10-30 17:15:00
10:35 AM,53.6,50.0,88,29.88,10.0,North,3.5,-,N/A,,Overcast,10,2012-10-30 17:35:00
10:55 AM,53.6,50.0,88,29.88,10.0,North,4.6,-,N/A,,Overcast,360,2012-10-30 17:55:00
11:15 AM,53.6,50.0,88,29.88,10.0,NNE,6.9,-,N/A,,Overcast,30,2012-10-30 18:15:00
11:35 AM,53.6,51.8,94,29.87,10.0,Calm,Calm,-,N/A,,Overcast,0,2012-10-30 18:35:00
11:55 AM,53.6,51.8,94,29.87,10.0,NE,6.9,-,N/A,,Overcast,40,2012-10-30 18:55:00
12:15 PM,53.6,51.8,94,29.87,10.0,NE,4.6,-,N/A,,Overcast,40,2012-10-30 19:15:00
12:35 PM,53.6,51.8,94,29.86,10.0,NE,6.9,-,N/A,,Overcast,40,2012-10-30 19:35:00
12:55 PM,53.6,51.8,94,29.86,10.0,Calm,Calm,-,N/A,,Overcast,0,2012-10-30 19:55:00
1:15 PM,53.6,51.8,94,29.86,10.0,NNE,3.5,-,N/A,,Overcast,20,2012-10-30 20:15:00
1:35 PM,55.4,51.8,88,29.85,10.0,NNE,3.5,-,N/A,,Overcast,30,2012-10-30 20:35:00
1:55 PM,55.4,53.6,94,29.85,10.0,NNE,4.6,-,N/A,,Overcast,30,2012-10-30 20:55:00
2:15 PM,55.4,53.6,94,29.85,10.0,NNE,4.6,-,N/A,,Overcast,30,2012-10-30 21:15:00
2:35 PM,55.4,51.8,88,29.84,10.0,NNE,5.8,-,N/A,,Overcast,20,2012-10-30 21:35:00
2:55 PM,55.4,53.6,94,29.83,10.0,NNE,6.9,-,N/A,,Overcast,30,2012-10-30 21:55:00
3:15 PM,55.4,53.6,94,29.82,10.0,NNE,5.8,-,N/A,,Overcast,30,2012-10-30 22:15:00
3:35 PM,55.4,53.6,94,29.82,10.0,NE,6.9,-,N/A,,Overcast,40,2012-10-30 22:35:00
3:55 PM,55.4,51.8,88,29.81,10.0,NNE,5.8,-,N/A,,Overcast,30,2012-10-30 22:55:00
4:15 PM,55.4,51.8,88,29.81,10.0,NE,3.5,-,N/A,,Overcast,40,2012-10-30 23:15:00
4:35 PM,53.6,51.8,94,29.81,10.0,NE,3.5,-,N/A,,Overcast,50,2012-10-30 23:35:00
4:55 PM,53.6,51.8,94,29.80,10.0,NE,3.5,-,N/A,,Overcast,50,2012-10-30 23:55:00
5:15 PM,53.6,51.8,94,29.80,10.0,Calm,Calm,-,N/A,,Overcast,0,2012-10-31 00:15:00
5:35 PM,53.6,51.8,94,29.79,8.0,Calm,Calm,-,0.01,,Overcast,0,2012-10-31 00:35:00
5:55 PM,53.6,51.8,94,29.79,9.0,Calm,Calm,-,0.01,,Overcast,0,2012-10-31 00:55:00
6:15 PM,53.6,51.8,94,29.79,10.0,NE,4.6,-,N/A,,Overcast,40,2012-10-31 01:15:00
6:35 PM,53.6,51.8,94,29.78,10.0,Calm,Calm,-,N/A,,Overcast,0,2012-10-31 01:35:00
6:55 PM,53.6,51.8,94,29.78,10.0,Calm,Calm,-,N/A,,Overcast,0,2012-10-31 01:55:00
7:15 PM,53.6,51.8,94,29.78,8.0,Calm,Calm,-,N/A,,Overcast,0,2012-10-31 02:15:00
7:35 PM,55.4,53.6,94,29.77,10.0,Calm,Calm,-,N/A,,Overcast,0,2012-10-31 02:35:00
7:55 PM,55.4,53.6,94,29.77,9.0,Calm,Calm,-,N/A,,Overcast,0,2012-10-31 02:55:00
8:15 PM,57.2,53.6,88,29.77,10.0,Calm,Calm,-,N/A,,Overcast,0,2012-10-31 03:15:00
8:35 PM,57.2,55.4,94,29.77,10.0,SE,10.4,-,N/A,,Overcast,130,2012-10-31 03:35:00
8:55 PM,57.2,55.4,94,29.77,10.0,SSE,9.2,-,N/A,,Overcast,160,2012-10-31 03:55:00
9:15 PM,57.2,55.4,94,29.76,10.0,SE,13.8,-,N/A,,Mostly Cloudy,130,2012-10-31 04:15:00
9:35 PM,57.2,55.4,94,29.76,10.0,SE,12.7,18.4,N/A,,Overcast,130,2012-10-31 04:35:00
9:55 PM,57.2,55.4,94,29.76,10.0,SE,12.7,-,N/A,,Overcast,130,2012-10-31 04:55:00
10:15 PM,59.0,55.4,88,29.76,10.0,SE,9.2,-,N/A,,Overcast,140,2012-10-31 05:15:00
10:35 PM,59.0,55.4,88,29.77,10.0,SE,13.8,20.7,N/A,,Overcast,140,2012-10-31 05:35:00
10:55 PM,59.0,53.6,82,29.77,10.0,SE,15.0,-,N/A,,Overcast,140,2012-10-31 05:55:00
11:15 PM,57.2,53.6,88,29.76,10.0,SE,13.8,-,N/A,,Overcast,130,2012-10-31 06:15:00
11:35 PM,57.2,53.6,88,29.77,10.0,SE,12.7,-,N/A,,Overcast,140,2012-10-31 06:35:00
11:55 PM,57.2,53.6,88,29.77,10.0,SE,9.2,-,0.04,,Overcast,140,2012-10-31 06:55:00